CW3001 Weather Reports


time (UTC)temp
F
wind
direction
speed
knots
gust
knots
rain 1hr
in
rain 24hr
in
rain mn
in
humidity
%
barometer
mb
20260509084519 63 100 4.3 7.8 0.00 0.00 0.00 63 1016.5
20260509084455 64 66 3.5 7.8 0.00 0.00 0.00 60 1016.8
20260509083409 62 90 2.6 5.2 0.00 0.00 0.00 64 1016.4
20260509082909 62 49 1.7 4.3 0.00 0.00 0.00 64 1015.9
20260509082409 62 49 2.6 4.3 0.00 0.00 0.00 66 1015.7
20260509081908 62 31 1.7 4.3 0.00 0.00 0.00 66 1016.0
20260509081412 62 71 1.7 4.3 0.00 0.00 0.00 67 1016.6
20260509080907 61 59 1.7 4.3 0.00 0.00 0.00 68 1018.4
20260509080404 61 48 1.7 5.2 0.00 0.00 0.00 68 1018.5
20260509075906 60 97 2.6 5.2 0.00 0.00 0.00 69 1018.6
20260509075431 60 54 1.7 6.1 0.00 0.00 0.00 70 1018.6
20260509074905 59 45 3.5 6.1 0.00 0.00 0.00 69 1018.5
20260509074403 60 16 1.7 5.2 0.00 0.00 0.00 70 1018.5
20260509073904 59 44 1.7 5.2 0.00 0.00 0.00 71 1018.5
20260509073403 58 54 3.5 4.3 0.00 0.00 0.00 73 1018.6
20260509072904 58 45 0.9 3.5 0.00 0.00 0.00 73 1018.4
20260509072749 58 38 1.7 5.2 0.00 0.00 0.00 75 1018.4
20260509071903 57 58 1.7 5.2 0.00 0.00 0.00 75 1018.4
20260509071403 57 41 1.7 5.2 0.00 0.00 0.00 76 1018.4
20260509070904 56 51 3.5 5.2 0.00 0.00 0.00 76 1018.3
20260509070403 56 58 2.6 6.1 0.00 0.00 0.00 77 1018.4
20260509065902 56 45 2.6 6.1 0.00 0.00 0.00 77 1018.5
20260509065402 55 38 3.5 4.3 0.00 0.00 0.00 77 1018.5
20260509064915 55 42 1.7 3.5 0.00 0.00 0.00 77 1018.5
20260509064403 55 73 0.9 5.2 0.00 0.00 0.00 78 1018.5
20260509063903 55 62 3.5 5.2 0.00 0.00 0.00 77 1018.6
20260509063401 54 66 1.7 4.3 0.00 0.00 0.00 77 1018.5
20260509063145 54 55 2.6 4.3 0.00 0.00 0.00 78 1018.5
20260509062652 54 59 0.9 4.3 0.00 0.00 0.00 79 1018.5
20260509061902 53 44 1.7 4.3 0.00 0.00 0.00 80 1018.5
20260509061405 53 63 1.7 3.5 0.00 0.00 0.00 81 1018.5
20260509060902 53 65 1.7 3.5 0.00 0.00 0.00 82 1018.5
20260509060650 52 89 0.9 3.5 0.00 0.00 0.00 83 1018.5
20260509060200 51 72 0.0 4.3 0.00 0.00 0.00 84 1018.5
20260509055709 51 62 1.7 4.3 0.00 0.00 0.00 85 1018.5
20260509054901 50 58 1.7 4.3 0.00 0.00 0.00 86 1018.5
20260509054404 50 65 0.9 2.6 0.00 0.00 0.00 87 1018.5
20260509053902 49 56 0.0 0.0 0.00 0.00 0.00 88 1018.5
20260509053403 49 11 0.0 0.0 0.00 0.00 0.00 90 1018.4
20260509052902 48 11 0.0 0.0 0.00 0.00 0.00 91 1018.4
20260509052402 47 11 0.0 0.0 0.00 0.00 0.00 91 1018.3
20260509051902 47 11 0.0 0.0 0.00 0.00 0.00 91 1018.3
20260509051402 47 11 0.0 0.0 0.00 0.00 0.00 91 1018.3
20260509051152 46 11 0.0 0.0 0.00 0.00 0.00 92 1018.3
20260509050403 46 10 0.0 0.0 0.00 0.00 0.00 92 1018.3
20260509045902 45 10 0.0 0.0 0.00 0.00 0.00 91 1018.3
20260509045402 44 10 0.0 0.0 0.00 0.00 0.00 91 1018.2
20260509044901 44 10 0.0 0.0 0.00 0.00 0.00 90 1018.2
20260509044402 44 10 0.0 0.0 0.00 0.00 0.00 90 1018.2
20260509043903 44 10 0.0 0.0 0.00 0.00 0.00 90 1018.2
20260509043402 44 10 0.0 0.0 0.00 0.00 0.00 90 1018.2
20260509042904 44 10 0.0 0.0 0.00 0.00 0.00 90 1018.1
20260509042402 44 18 0.0 0.0 0.00 0.00 0.00 90 1018.1
20260509041902 43 21 0.0 0.0 0.00 0.00 0.00 90 1018.1
20260509041414 43 32 0.0 0.0 0.00 0.00 0.00 90 1018.1
20260509040903 43 32 0.0 0.0 0.00 0.00 0.00 89 1018.1
20260509040403 43 32 0.0 0.0 0.00 0.00 0.00 89 1018.1
20260509035904 43 32 0.0 0.0 0.00 0.00 0.00 89 1018.0
20260509035404 43 32 0.0 0.0 0.00 0.00 0.00 89 1018.2
20260509034902 43 32 0.0 0.0 0.00 0.00 0.00 89 1018.1
20260509034650 43 32 0.0 0.0 0.00 0.00 0.00 89 1018.0
20260509034145 44 32 0.0 0.0 0.00 0.00 0.00 89 1018.1
20260509033759 44 32 0.0 0.0 0.00 0.00 0.00 89 1018.0
20260509033753 44 32 0.0 0.0 0.00 0.00 0.00 89 1018.1
20260509032723 44 32 0.0 0.0 0.00 0.00 0.00 89 1018.0
20260509031902 44 32 0.0 0.0 0.00 0.00 0.00 89 1018.1
20260509031700 44 32 0.0 1.7 0.00 0.00 0.00 89 1018.1
20260509030902 44 32 0.0 1.7 0.00 0.00 0.00 89 1018.0
20260509030401 44 32 0.0 1.7 0.00 0.00 0.00 89 1018.2
20260509025904 44 31 0.0 0.0 0.00 0.00 0.00 89 1018.2
20260509025402 44 31 0.0 0.0 0.00 0.00 0.00 89 1018.2
20260509024902 44 31 0.0 1.7 0.00 0.00 0.00 89 1018.3
20260509024700 44 31 0.9 1.7 0.00 0.00 0.00 88 1018.2
20260509023903 44 31 0.0 1.7 0.00 0.00 0.00 88 1018.3
20260509023730 44 30 0.0 0.0 0.00 0.00 0.00 87 1018.3
20260509023721 44 31 0.0 0.0 0.00 0.00 0.00 88 1018.3
20260509022406 44 30 0.0 0.0 0.00 0.00 0.00 87 1018.3
20260509021906 44 30 0.0 0.0 0.00 0.00 0.00 87 1018.3
20260509021404 44 30 0.0 0.0 0.00 0.00 0.00 87 1018.3
20260509020903 44 30 0.0 0.0 0.00 0.00 0.00 87 1018.2
20260509020406 44 30 0.0 0.0 0.00 0.00 0.00 87 1018.3
20260509015902 44 30 0.0 0.0 0.00 0.00 0.00 87 1018.3
20260509015401 45 30 0.0 0.0 0.00 0.00 0.00 87 1018.3
20260509015153 45 30 0.0 0.0 0.00 0.00 0.00 87 1018.3
20260509014401 45 28 0.0 0.0 0.00 0.00 0.00 87 1018.4
20260509013902 45 28 0.0 0.0 0.00 0.00 0.00 86 1018.4
20260509013650 45 28 0.0 0.0 0.00 0.00 0.00 86 1018.5
20260509012902 45 28 0.0 0.0 0.00 0.00 0.00 87 1018.5
20260509012402 45 28 0.0 0.0 0.00 0.00 0.00 86 1018.5
20260509011904 45 28 0.0 0.0 0.00 0.00 0.00 86 1018.5
20260509011402 45 28 0.0 0.0 0.00 0.00 0.00 86 1018.5
20260509010905 45 28 0.0 0.0 0.00 0.00 0.00 85 1018.5
20260509010403 46 28 0.0 0.0 0.00 0.00 0.00 85 1018.5
20260509005903 46 27 0.0 0.0 0.00 0.00 0.00 85 1018.6
20260509005401 46 25 0.0 0.0 0.00 0.00 0.00 85 1018.6
20260509004902 46 25 0.0 0.0 0.00 0.00 0.00 85 1018.6
20260509004406 46 25 0.0 0.0 0.00 0.00 0.00 85 1018.5
20260509003913 46 25 0.0 0.0 0.00 0.00 0.00 86 1018.4
20260509003402 46 27 0.0 0.0 0.00 0.00 0.00 85 1018.6
20260509002902 46 47 0.0 0.0 0.00 0.00 0.00 85 1018.6
20260509002507 46 48 0.0 0.0 0.00 0.00 0.00 85 1018.6
20260509002446 46 48 0.0 0.0 0.00 0.00 0.00 85 1018.6
20260509001403 46 48 0.0 0.0 0.00 0.00 0.00 83 1018.6
20260509000902 47 48 0.0 0.0 0.00 0.00 0.00 83 1018.6
20260509000404 47 48 0.0 0.0 0.00 0.00 0.00 84 1018.5
20260508235903 47 48 0.0 0.0 0.00 0.00 0.00 84 1018.5
20260508235403 47 48 0.0 0.0 0.00 0.00 0.00 84 1018.5
20260508234904 47 48 0.0 0.0 0.00 0.00 0.00 84 1018.5
20260508234404 47 48 0.0 0.0 0.00 0.00 0.00 83 1018.6
20260508233902 47 48 0.0 0.0 0.00 0.00 0.00 82 1018.6
20260508233653 47 48 0.0 0.0 0.00 0.00 0.00 81 1018.7
20260508232914 47 48 0.0 0.0 0.00 0.00 0.00 81 1018.7
20260508232403 48 48 0.0 0.0 0.00 0.00 0.00 81 1018.5
20260508231903 48 48 0.0 0.0 0.00 0.00 0.00 81 1018.5
20260508231716 48 48 0.0 0.0 0.00 0.00 0.00 82 1018.6
20260508230903 48 48 0.0 0.0 0.00 0.00 0.00 81 1018.5
20260508230402 48 48 0.0 0.0 0.00 0.00 0.00 81 1018.5
20260508225903 49 48 0.0 0.0 0.00 0.00 0.00 80 1018.5
20260508225404 49 48 0.0 0.0 0.00 0.00 0.00 78 1018.5
20260508224903 49 48 0.0 0.0 0.00 0.00 0.00 79 1018.5
20260508224402 49 48 0.0 0.0 0.00 0.00 0.00 78 1018.6
20260508223902 49 48 0.0 0.0 0.00 0.00 0.00 78 1018.6
20260508223404 50 48 0.0 0.0 0.00 0.00 0.00 78 1018.7
20260508222902 50 48 0.0 0.0 0.00 0.00 0.00 78 1018.6
20260508222402 50 48 0.0 0.0 0.00 0.00 0.00 77 1018.6
20260508221903 51 48 0.0 0.0 0.00 0.00 0.00 73 1018.6
20260508221702 51 48 0.0 0.0 0.00 0.00 0.00 73 1018.5
20260508220902 51 48 0.0 2.6 0.00 0.00 0.00 73 1018.5
20260508220401 52 48 0.0 3.5 0.00 0.00 0.00 73 1018.5
20260508220200 52 47 1.7 3.5 0.00 0.00 0.00 73 1018.5
20260508215403 52 45 1.7 2.6 0.00 0.00 0.00 73 1018.4
20260508215209 52 41 1.7 2.6 0.00 0.00 0.00 73 1018.5
20260508214403 52 41 0.9 2.6 0.00 0.00 0.00 74 1018.5
20260508213903 52 39 1.7 2.6 0.00 0.00 0.00 74 1018.5
20260508213402 52 39 1.7 2.6 0.00 0.00 0.00 75 1018.6
20260508212903 52 41 1.7 2.6 0.00 0.00 0.00 76 1018.5
20260508212402 52 45 1.7 3.5 0.00 0.00 0.00 76 1018.4
20260508212148 52 44 2.6 3.5 0.00 0.00 0.00 77 1018.4
20260508211402 52 61 1.7 3.5 0.00 0.00 0.00 77 1018.4
20260508211005 53 55 0.0 0.0 0.00 0.00 0.00 75 1018.4
20260508210946 52 61 2.6 3.5 0.00 0.00 0.00 76 1018.4
20260508205902 53 55 0.0 0.0 0.00 0.00 0.00 75 1018.4
20260508205402 53 56 0.0 0.0 0.00 0.00 0.00 74 1018.3
20260508204903 54 59 0.0 0.0 0.00 0.00 0.00 73 1018.3
20260508204402 54 59 0.0 0.0 0.00 0.00 0.00 73 1018.3
20260508203917 54 59 0.0 0.0 0.00 0.00 0.00 71 1018.4
20260508203412 55 59 0.0 0.0 0.00 0.00 0.00 70 1018.4
20260508202902 55 52 0.0 0.0 0.00 0.00 0.00 70 1018.4
20260508202402 55 52 0.0 3.5 0.00 0.00 0.00 69 1018.4
20260508201902 56 52 0.0 3.5 0.00 0.00 0.00 69 1018.3
20260508201404 56 55 1.7 3.5 0.00 0.00 0.00 68 1018.3
20260508200902 56 55 1.7 3.5 0.00 0.00 0.00 68 1018.2
20260508200402 56 51 2.6 3.5 0.00 0.00 0.00 68 1018.3
20260508195903 57 49 1.7 3.5 0.00 0.00 0.00 67 1018.2
20260508195402 57 49 1.7 3.5 0.00 0.00 0.00 66 1018.2
20260508194903 58 47 2.6 3.5 0.00 0.00 0.00 66 1018.2
20260508194404 58 51 1.7 3.5 0.00 0.00 0.00 64 1018.1
20260508193919 58 51 1.7 3.5 0.00 0.00 0.00 64 1018.1
20260508193402 59 55 1.7 2.6 0.00 0.00 0.00 63 1018.1
20260508192902 59 55 0.9 4.3 0.00 0.00 0.00 62 1018.1
20260508192405 59 54 1.7 4.3 0.00 0.00 0.00 60 1018.0
20260508191902 60 61 2.6 4.3 0.00 0.00 0.00 59 1017.9
20260508191403 60 48 2.6 4.3 0.00 0.00 0.00 58 1017.9
20260508190902 60 48 1.7 4.3 0.00 0.00 0.00 58 1017.8
20260508190403 60 51 1.7 4.3 0.00 0.00 0.00 57 1017.7
20260508190145 61 59 2.6 5.2 0.00 0.00 0.00 57 1017.7
20260508185648 61 59 3.5 6.1 0.00 0.00 0.00 55 1017.5
20260508184915 61 49 3.5 6.1 0.00 0.00 0.00 56 1017.5
20260508184402 62 54 2.6 7.8 0.00 0.00 0.00 55 1017.4
20260508183902 62 39 5.2 7.8 0.00 0.00 0.00 54 1017.4
20260508183403 62 62 3.5 5.2 0.00 0.00 0.00 54 1017.4
20260508182905 62 52 1.7 6.1 0.00 0.00 0.00 54 1017.4
20260508182417 62 82 2.6 6.1 0.00 0.00 0.00 54 1017.3
20260508182204 62 66 1.7 5.2 0.00 0.00 0.00 54 1017.3
20260508181403 62 62 3.5 6.1 0.00 0.00 0.00 54 1017.3
20260508180904 62 45 2.6 6.1 0.00 0.00 0.00 53 1017.2
20260508180402 62 56 3.5 5.2 0.00 0.00 0.00 53 1017.3
20260508180147 62 34 3.5 5.2 0.00 0.00 0.00 52 1017.2
20260508175404 63 52 0.0 4.3 0.00 0.00 0.00 54 1017.2
20260508174903 63 54 2.6 5.2 0.00 0.00 0.00 52 1017.2
20260508174402 63 56 3.5 5.2 0.00 0.00 0.00 52 1017.1
20260508173906 63 61 1.7 5.2 0.00 0.00 0.00 52 1017.1
20260508173402 63 82 3.5 6.1 0.00 0.00 0.00 52 1017.0
20260508172902 63 59 2.6 7.8 0.00 0.00 0.00 52 1017.0
20260508172402 63 56 1.7 7.8 0.00 0.00 0.00 52 1017.0
20260508171902 63 79 4.3 6.1 0.00 0.00 0.00 53 1017.0
20260508171402 63 96 3.5 7.8 0.00 0.00 0.00 51 1016.8
20260508171139 63 71 2.6 7.8 0.00 0.00 0.00 51 1016.8
20260508170403 64 68 4.3 7.8 0.00 0.00 0.00 51 1016.9
20260508165903 64 55 3.5 8.7 0.00 0.00 0.00 51 1016.8
20260508165713 64 75 3.5 8.7 0.00 0.00 0.00 51 1016.7
20260508164901 64 51 1.7 5.2 0.00 0.00 0.00 50 1016.6
20260508164402 64 52 1.7 9.6 0.00 0.00 0.00 51 1016.5
20260508164153 64 32 4.3 9.6 0.00 0.00 0.00 51 1016.6
20260508163401 64 80 4.3 9.6 0.00 0.00 0.00 49 1016.6
20260508162904 64 83 5.2 9.6 0.00 0.00 0.00 48 1016.5
20260508162402 64 54 5.2 9.6 0.00 0.00 0.00 50 1016.4
20260508161902 64 41 4.3 6.1 0.00 0.00 0.00 49 1016.5
20260508161403 64 31 3.5 8.7 0.00 0.00 0.00 48 1016.6
20260508160903 64 58 3.5 10.4 0.00 0.00 0.00 48 1016.7
20260508160715 65 65 4.3 10.4 0.00 0.00 0.00 48 1016.7
20260508155904 65 34 5.2 9.6 0.00 0.00 0.00 49 1016.6
20260508155410 65 35 4.3 9.6 0.00 0.00 0.00 50 1016.7
20260508154902 65 37 3.5 7.8 0.00 0.00 0.00 47 1016.6
20260508154657 65 25 2.6 7.8 0.00 0.00 0.00 48 1016.6
20260508153901 65 55 4.3 9.6 0.00 0.00 0.00 49 1016.6
20260508153403 65 44 5.2 9.6 0.00 0.00 0.00 49 1016.6
20260508152902 64 58 5.2 11.3 0.00 0.00 0.00 50 1016.7
20260508152403 64 30 6.1 11.3 0.00 0.00 0.00 49 1016.6
20260508151903 65 51 4.3 8.7 0.00 0.00 0.00 50 1016.8
20260508151651 65 49 4.3 8.7 0.00 0.00 0.00 49 1016.8
20260508150902 65 66 3.5 8.7 0.00 0.00 0.00 48 1016.8
20260508150417 65 48 2.6 9.6 0.00 0.00 0.00 47 1016.9
20260508145903 65 23 4.3 9.6 0.00 0.00 0.00 47 1016.8
20260508145402 65 58 4.3 8.7 0.00 0.00 0.00 48 1016.8
20260508144902 65 38 4.3 9.6 0.00 0.00 0.00 47 1016.8
20260508144402 66 54 5.2 9.6 0.00 0.00 0.00 49 1016.8
20260508143902 67 38 5.2 10.4 0.00 0.00 0.00 47 1016.8
20260508143717 68 42 6.1 10.4 0.00 0.00 0.00 46 1016.9
20260508142904 68 27 2.6 8.7 0.00 0.00 0.00 46 1016.9
20260508142424 67 62 4.3 8.7 0.00 0.00 0.00 48 1017.0
20260508141903 66 63 4.3 11.3 0.00 0.00 0.00 52 1017.0
20260508141402 65 76 5.2 11.3 0.00 0.00 0.00 50 1017.0
20260508140902 64 61 3.5 9.6 0.00 0.00 0.00 52 1017.1
20260508140402 64 47 6.1 9.6 0.00 0.00 0.00 50 1017.1
20260508135902 64 89 4.3 7.8 0.00 0.00 0.00 51 1017.2
20260508135402 65 73 3.5 8.7 0.00 0.00 0.00 51 1017.2
20260508134902 66 27 4.3 8.7 0.00 0.00 0.00 50 1017.2
20260508134403 64 92 4.3 9.6 0.00 0.00 0.00 52 1017.2
20260508133901 64 37 5.2 9.6 0.00 0.00 0.00 52 1017.2
20260508133709 64 123 3.5 7.8 0.00 0.00 0.00 52 1017.4
20260508132910 64 51 5.2 8.7 0.00 0.00 0.00 51 1017.3
20260508132402 64 62 4.3 8.7 0.00 0.00 0.00 50 1017.4
20260508131902 64 54 4.3 8.7 0.00 0.00 0.00 50 1017.3
20260508131402 64 68 5.2 10.4 0.00 0.00 0.00 50 1017.5
20260508130902 64 49 6.1 10.4 0.00 0.00 0.00 53 1017.4
20260508130402 63 90 5.2 8.7 0.00 0.00 0.00 53 1017.4
20260508125902 63 52 2.6 8.7 0.00 0.00 0.00 51 1017.3
20260508125653 63 61 3.5 7.8 0.00 0.00 0.00 53 1017.4
20260508124902 63 72 4.3 8.7 0.00 0.00 0.00 54 1017.4
20260508124417 63 42 4.3 8.7 0.00 0.00 0.00 53 1017.4
20260508123902 64 54 4.3 9.6 0.00 0.00 0.00 53 1017.4
20260508123402 64 34 5.2 9.6 0.00 0.00 0.00 52 1017.4
20260508122903 64 28 4.3 7.8 0.00 0.00 0.00 57 1017.4
20260508122402 64 28 3.5 7.8 0.00 0.00 0.00 53 1017.4
20260508121918 64 24 2.6 7.8 0.00 0.00 0.00 53 1017.4
20260508121401 64 41 3.5 7.8 0.00 0.00 0.00 55 1017.3
20260508120919 64 65 2.6 7.8 0.00 0.00 0.00 51 1017.4
20260508120402 63 106 3.5 7.8 0.00 0.00 0.00 53 1017.4
20260508115902 63 62 0.9 5.2 0.00 0.00 0.00 52 1017.3
20260508115401 63 24 2.6 5.2 0.00 0.00 0.00 55 1017.3
20260508115150 64 72 0.9 5.2 0.00 0.00 0.00 52 1017.3
20260508114651 64 54 0.9 4.3 0.00 0.00 0.00 52 1017.3
20260508114153 64 35 0.0 5.2 0.00 0.00 0.00 52 1017.4
20260508113403 64 106 2.6 7.8 0.00 0.00 0.00 50 1017.4
20260508112903 64 87 2.6 7.8 0.00 0.00 0.00 53 1017.4
20260508112404 64 62 3.5 7.8 0.00 0.00 0.00 52 1017.4
20260508111903 64 104 5.2 7.8 0.00 0.00 0.00 54 1017.5
20260508111402 64 148 2.6 5.2 0.00 0.00 0.00 52 1017.5
20260508110901 64 45 0.9 4.3 0.00 0.00 0.00 54 1017.5
20260508110403 64 99 0.9 6.1 0.00 0.00 0.00 52 1017.5
20260508105903 64 124 1.7 6.1 0.00 0.00 0.00 50 1017.4
20260508105432 64 166 3.5 5.2 0.00 0.00 0.00 52 1017.5
20260508104917 63 102 1.7 5.2 0.00 0.00 0.00 60 1017.5
20260508104404 63 38 2.6 5.2 0.00 0.00 0.00 57 1017.6
20260508103906 64 34 2.6 5.2 0.00 0.00 0.00 57 1017.5
20260508103403 63 24 3.5 4.3 0.00 0.00 0.00 58 1017.5
20260508102902 63 28 1.7 4.3 0.00 0.00 0.00 61 1017.5
20260508102655 63 47 1.7 4.3 0.00 0.00 0.00 61 1017.6
20260508101902 63 92 1.7 5.2 0.00 0.00 0.00 59 1017.6
20260508101654 63 73 2.6 5.2 0.00 0.00 0.00 58 1017.5
20260508100902 63 47 0.9 4.3 0.00 0.00 0.00 61 1017.6
20260508100706 62 55 2.6 5.2 0.00 0.00 0.00 63 1017.6
20260508100152 62 65 1.7 5.2 0.00 0.00 0.00 62 1017.6
20260508095403 62 32 0.9 4.3 0.00 0.00 0.00 66 1017.7
20260508094914 62 76 1.7 4.3 0.00 0.00 0.00 66 1017.7
20260508094403 61 37 2.6 3.5 0.00 0.00 0.00 65 1017.7
20260508093902 61 62 1.7 3.5 0.00 0.00 0.00 66 1017.7
20260508093401 61 4 1.7 4.3 0.00 0.00 0.00 68 1017.7
20260508092903 60 42 2.6 4.3 0.00 0.00 0.00 69 1017.6
20260508092402 60 49 2.6 4.3 0.00 0.00 0.00 70 1017.6
20260508091902 59 68 2.6 4.3 0.00 0.00 0.00 71 1017.6
20260508091402 59 49 1.7 3.5 0.00 0.00 0.00 70 1017.7
20260508090941 58 66 1.7 3.5 0.00 0.00 0.00 74 1017.8
20260508090927 59 45 2.6 3.5 0.00 0.00 0.00 70 1017.7
20260508085902 58 38 0.0 2.6 0.00 0.00 0.00 73 1017.7
20260508085403 58 68 0.0 3.5 0.00 0.00 0.00 72 1017.8
20260508084903 58 68 1.7 3.5 0.00 0.00 0.00 73 1017.7